Richmond, KY

4:49 AM EST on December 08, 2016 (GMT -0500)
Richmond

Weather History for KI39 - April, 2014

Change the Weather History Date:

Wednesday, April 2, 2014

  Actual Average (KLEX) Record (KLEX)
Temperature  
Mean Temperature 60 °F 51 °F  
Max Temperature 75 °F 61 °F 84 °F (1946)
Min Temperature 46 °F 41 °F 23 °F (1907)
Degree Days  
Heating Degree Days 4 14  
Month to date heating degree days 29  
Since 1 July heating degree days 4205  
Cooling Degree Days 0 0  
Month to date cooling degree days 0  
Year to date cooling degree days 2  
Growing Degree Days 10 (Base 50)    
Moisture  
Dew Point 45 °F    
Average Humidity 62    
Maximum Humidity 87    
Minimum Humidity 36    
Precipitation  
Precipitation 0.00 in 0.12 in 1.63 in (1979)
Month to date precipitation 0.24  
Year to date precipitation 10.71  
Snow  
Snow 0.00 in 0.10 in 1.00 in (1987)
Month to date snowfall 0.1  
Since 1 July snowfall 12.8  
Snow Depth -    
Sea Level Pressure  
Sea Level Pressure 30.05 in    
Wind  
Wind Speed 3 mph (NE)    
Max Wind Speed 14 mph    
Max Gust Speed 18 mph    
Visibility 10 miles    
Events      
T = Trace of Precipitation, MM = Missing Value Source: NWS Daily Summary

Daily Weather History Graph

Daily Weather History Graph

Search for Another Location

Airport or City:

Trip Planner

Search our weather history database for the weather conditions in past years. The results will help you decide how hot, cold, wet, or windy it might be!

Date:

Astronomy

Apr. 02, 2014 Rise Set
Actual Time 7:21 AM EDT 8:01 PM EDT
Civil Twilight 6:54 AM EDT 8:27 PM EDT
Nautical Twilight 6:23 AM EDT 8:58 PM EDT
Astronomical Twilight 5:51 AM EDT 9:30 PM EDT
Moon 9:08 AM EDT (4/2) 11:19 PM EDT (4/2)
Length of Visible Light 13h 32m
Length of Day
12h 39m
Waxing Crescent, 10% of the Moon is Illuminated
Apr 2
Waxing Crescent
Apr 7
First Quarter
Apr 15
Full
Apr 22
Last Quarter
Apr 29
New

Hourly Weather History & Observations

Time (EDT) Temp. Windchill Dew Point Humidity Pressure Visibility Wind Dir Wind Speed Gust Speed Precip Events Conditions
12:15 AM 57.2 °F - 44.6 °F 63% 30.05 in 10.0 mi ESE 3.5 mph - N/A   Clear
12:35 AM 57.2 °F - 44.6 °F 63% 30.05 in 10.0 mi Calm Calm - N/A   Clear
12:55 AM 55.4 °F - 44.6 °F 67% 30.05 in 10.0 mi East 3.5 mph - N/A   Clear
1:15 AM 55.4 °F - 44.6 °F 67% 30.05 in 10.0 mi SE 4.6 mph - N/A   Clear
1:35 AM 53.6 °F - 44.6 °F 72% 30.05 in 10.0 mi Calm Calm - N/A   Clear
1:55 AM 53.6 °F - 44.6 °F 72% 30.05 in 10.0 mi North 3.5 mph - N/A   Clear
2:15 AM 51.8 °F - 44.6 °F 76% 30.05 in 10.0 mi North 3.5 mph - N/A   Clear
2:35 AM 51.8 °F - 44.6 °F 76% 30.04 in 10.0 mi Calm Calm - N/A   Clear
2:55 AM 53.6 °F - 44.6 °F 72% 30.03 in 10.0 mi Calm Calm - N/A   Clear
3:15 AM 51.8 °F - 42.8 °F 71% 30.03 in 10.0 mi NE 3.5 mph - N/A   Clear
3:35 AM 53.6 °F - 42.8 °F 67% 30.03 in 10.0 mi Calm Calm - N/A   Clear
3:55 AM 46.4 °F 44.3 °F 41.0 °F 81% 30.04 in 10.0 mi North 4.6 mph - N/A   Clear
4:15 AM 50.0 °F - 42.8 °F 76% 30.04 in 10.0 mi Calm Calm - N/A   Clear
4:35 AM 50.0 °F - 42.8 °F 76% 30.05 in 10.0 mi Calm Calm - N/A   Clear
4:55 AM 48.2 °F - 42.8 °F 82% 30.05 in 10.0 mi East 3.5 mph - N/A   Clear
5:15 AM 50.0 °F - 42.8 °F 76% 30.06 in 10.0 mi Calm Calm - N/A   Clear
5:35 AM 48.2 °F - 42.8 °F 82% 30.06 in 10.0 mi Calm Calm - N/A   Clear
5:55 AM 48.2 °F - 42.8 °F 82% 30.07 in 10.0 mi Calm Calm - N/A   Scattered Clouds
6:15 AM 48.2 °F - 42.8 °F 82% 30.07 in 10.0 mi SE 3.5 mph - N/A   Scattered Clouds
6:35 AM 46.4 °F 45.2 °F 42.8 °F 87% 30.07 in 10.0 mi SE 3.5 mph - N/A   Clear
6:55 AM 48.2 °F - 41.0 °F 76% 30.08 in 10.0 mi ESE 3.5 mph - N/A   Clear
7:15 AM 48.2 °F - 41.0 °F 76% 30.08 in 10.0 mi ENE 3.5 mph - N/A   Clear
8:35 AM 46.4 °F 45.2 °F 42.8 °F 87% 30.11 in 10.0 mi NNW 3.5 mph - N/A   Scattered Clouds
8:55 AM 50.0 °F - 41.0 °F 71% 30.10 in 10.0 mi NE 4.6 mph - N/A   Mostly Cloudy
9:15 AM 51.8 °F - 41.0 °F 67% 30.10 in 10.0 mi NE 8.1 mph - N/A   Overcast
9:35 AM 51.8 °F - 41.0 °F 67% 30.11 in 10.0 mi North 6.9 mph - N/A   Mostly Cloudy
9:55 AM 53.6 °F - 41.0 °F 62% 30.10 in 10.0 mi ENE 8.1 mph - N/A   Mostly Cloudy
10:15 AM 57.2 °F - 42.8 °F 59% 30.10 in 10.0 mi East 8.1 mph - N/A   Mostly Cloudy
10:35 AM 57.2 °F - 42.8 °F 59% 30.10 in 10.0 mi East 4.6 mph - N/A   Mostly Cloudy
10:55 AM 59.0 °F - 42.8 °F 55% 30.10 in 10.0 mi East 5.8 mph - N/A   Scattered Clouds
11:15 AM 62.6 °F - 44.6 °F 52% 30.09 in 10.0 mi East 6.9 mph - N/A   Clear
11:35 AM 62.6 °F - 44.6 °F 52% 30.10 in 10.0 mi Calm Calm - N/A   Scattered Clouds
11:55 AM 64.4 °F - 44.6 °F 49% 30.09 in 10.0 mi Calm Calm - N/A   Mostly Cloudy
12:35 PM 64.4 °F - 44.6 °F 49% 30.10 in 10.0 mi NNW 10.4 mph - N/A   Mostly Cloudy
12:55 PM 64.4 °F - 44.6 °F 49% 30.09 in 10.0 mi North 4.6 mph - N/A   Mostly Cloudy
1:15 PM 66.2 °F - 44.6 °F 46% 30.09 in 10.0 mi NNE 5.8 mph - N/A   Clear
1:55 PM 68.0 °F - 42.8 °F 40% 30.07 in 10.0 mi ENE 5.8 mph - N/A   Clear
2:15 PM 68.0 °F - 42.8 °F 40% 30.06 in 10.0 mi NE 5.8 mph - N/A   Clear
2:35 PM 69.8 °F - 42.8 °F 38% 30.05 in 10.0 mi East 4.6 mph - N/A   Clear
2:55 PM 71.6 °F - 44.6 °F 38% 30.05 in 10.0 mi East 3.5 mph - N/A   Clear
3:35 PM 73.4 °F - 46.4 °F 38% 30.03 in 10.0 mi Calm Calm - N/A   Clear
3:55 PM 75.2 °F - 46.4 °F 36% 30.02 in 10.0 mi WNW 3.5 mph - N/A   Clear
4:15 PM 75.2 °F - 48.2 °F 38% 30.02 in 10.0 mi WNW 6.9 mph - N/A   Clear
4:35 PM 75.2 °F - 48.2 °F 38% 30.02 in 10.0 mi WNW 4.6 mph - N/A   Clear
4:55 PM 75.2 °F - 48.2 °F 38% 30.00 in 10.0 mi WNW 3.5 mph - N/A   Scattered Clouds
5:15 PM 75.2 °F - 48.2 °F 38% 29.99 in 10.0 mi Calm Calm - N/A   Clear
5:35 PM 75.2 °F - 50.0 °F 41% 29.99 in 10.0 mi Calm Calm - N/A   Clear
5:55 PM 75.2 °F - 50.0 °F 41% 29.98 in 10.0 mi Calm Calm - N/A   Clear
6:15 PM 75.2 °F - 50.0 °F 41% 29.99 in 7.0 mi Calm Calm - N/A   Scattered Clouds
6:35 PM 73.4 °F - 50.0 °F 44% 29.99 in 5.0 mi Calm Calm - N/A   Mostly Cloudy
6:55 PM 73.4 °F - 50.0 °F 44% 29.99 in 10.0 mi Calm Calm - N/A   Overcast
7:15 PM 73.4 °F - 50.0 °F 44% 29.99 in 10.0 mi Calm Calm - N/A   Overcast
7:35 PM 71.6 °F - 51.8 °F 50% 30.01 in 10.0 mi North 10.4 mph - N/A   Overcast
7:55 PM 66.2 °F - 50.0 °F 56% 30.00 in 10.0 mi NE 6.9 mph - N/A   Overcast
8:15 PM 66.2 °F - 50.0 °F 56% 30.03 in 10.0 mi North 8.1 mph - N/A   Overcast
8:35 PM 62.6 °F - 50.0 °F 63% 30.04 in 10.0 mi North 8.1 mph - N/A   Overcast
8:55 PM 57.2 °F - 50.0 °F 77% 30.05 in 10.0 mi North 13.8 mph 18.4 mph N/A   Overcast
9:15 PM 57.2 °F - 50.0 °F 77% 30.05 in 10.0 mi NNE 5.8 mph - N/A   Scattered Clouds
9:35 PM 57.2 °F - 48.2 °F 72% 30.05 in 10.0 mi NE 5.8 mph - N/A   Scattered Clouds
9:55 PM 57.2 °F - 48.2 °F 72% 30.03 in 10.0 mi East 6.9 mph - N/A   Scattered Clouds
10:15 PM 57.2 °F - 48.2 °F 72% 30.03 in 10.0 mi East 5.8 mph - N/A   Clear
10:35 PM 57.2 °F - 48.2 °F 72% 30.04 in 10.0 mi East 4.6 mph - N/A   Clear
10:55 PM 55.4 °F - 48.2 °F 77% 30.04 in 10.0 mi East 3.5 mph - N/A   Mostly Cloudy
11:15 PM 55.4 °F - 48.2 °F 77% 30.03 in 10.0 mi ESE 4.6 mph - N/A   Overcast
11:35 PM 55.4 °F - 48.2 °F 77% 30.02 in 10.0 mi East 4.6 mph - N/A   Mostly Cloudy
11:55 PM 57.2 °F - 48.2 °F 72% 30.02 in 10.0 mi ESE 6.9 mph - N/A   Overcast